Location: Unspecified
(48.7670°N, 0.0000°E)
Time: 00:57:05
(UTC+00:00)

S-56A Canister/Altair - Pass Details

Date: 21 October 2019
Orbit: 634 x 2498 km, 38.9° (Epoch: 14 November)

Event Time Altitude Azimuth Distance (km) Brightness Sun altitude
Exits shadow 05:39:23 - 257° (WSW) 3,292 10.2 -8.8°
Reaches altitude 10° 05:39:48 10° 256° (WSW) 3,176 10.1 -8.8°
Maximum altitude 05:47:22 44° 187° (S) 2,110 9.8 -7.5°
Drops below altitude 10° 05:58:23 10° 122° (ESE) 4,579 12.8 -5.7°
Sets 06:02:45 0° 117° (ESE) 5,810 13.8 -5.0°
